Temp
23 21 22 22 29 30 31 31 30 31 31 30 30 30 29 29 28 28 24 25 23 23 23 22 22 22 21 22 21 22 22 21 21 21 21 21 21 21 21 21 21 21 21 21 21 21 21 21 21
22 22 22 25 30 31 31 31 31 31 31 31 31 30 29 29 27 25 25 24 24 23 23 22 22 22 21 22 22 22 21 21 21 22 21 21 21 21 21 21 21 21 21 21 21 21 21 21 21
22 22 25 29 29 31 31 32 31 31 32 32 31 30 29 27 25 26 25 24 24 23 23 22 22 22 23 22 22 22 22 21 21 22 21 21 21 21 21 21 21 21 22 21 21 21 21 21 20
23 24 27 29 30 31 31 32 32 32 32 32 31 30 28 25 25 25 24 24 23 23 23 22 22 21 22 22 22 22 22 22 22 21 21 21 21 21 21 21 21 21 21 21 21 21 21 21 20
25 26 30 31 31 31 31 33 32 33 32 32 32 29 28 26 24 24 24 24 24 23 23 22 22 22 22 22 22 22 22 22 22 21 21 21 21 21 21 21 21 21 21 21 21 21 21 21 20
27 26 30 31 32 32 32 33 33 33 32 31 31 30 29 25 24 24 24 24 24 23 23 23 22 22 22 22 22 21 21 21 21 21 21 21 21 21 21 21 21 21 21 21 21 21 20 20 20
28 28 30 30 31 32 32 33 33 33 33 33 32 30 27 26 25 24 24 24 23 23 23 22 22 22 21 22 21 21 21 21 21 21 21 21 21 21 21 21 21 21 21 21 21 20 20 20 20
27 28 29 30 31 33 33 33 33 33 32 32 31 31 30 27 24 24 23 23 23 23 23 23 22 22 22 22 21 21 21 21 22 22 21 21 21 21 21 21 21 21 20 20 21 20 20 21 20
27 30 30 31 31 33 33 33 34 32 32 32 33 31 31 25 24 24 23 22 22 22 23 23 22 22 22 22 21 21 21 21 21 21 21 21 21 22 21 21 21 20 21 21 20 21 20 20 20
29 29 31 31 32 32 32 33 34 33 33 32 32 30 26 24 24 24 24 24 23 23 22 22 22 22 22 22 21 21 22 22 22 21 21 21 21 21 21 21 21 21 20 20 20 21 21 21 22
28 31 31 32 32 32 32 32 34 33 33 35 33 33 27 25 25 25 25 24 24 23 22 22 22 22 22 22 22 22 22 22 21 21 21 21 21 21 21 21 21 21 21 22 21 21 22 22 22
29 31 31 32 32 31 32 33 32 33 35 36 34 34 28 26 26 26 25 24 24 23 23 22 21 21 22 22 22 22 22 22 22 22 21 21 21 21 21 21 21 21 22 22 22 22 22 21 21
29 31 32 32 33 33 33 33 33 33 35 35 32 32 30 28 27 26 25 24 24 23 23 22 21 20 21 21 21 22 22 21 22 21 21 21 21 21 21 21 21 21 21 21 21 21 21 21 21
32 31 32 32 32 32 32 34 32 35 34 34 32 31 32 31 28 27 25 25 24 24 23 22 21 20 20 20 20 21 21 21 21 21 21 21 21 21 21 21 21 21 21 21 21 21 21 21 22
31 31 33 32 31 32 32 33 33 35 33 33 32 31 31 30 30 27 26 25 24 24 23 22 21 21 20 20 20 21 21 21 21 21 20 21 21 21 21 21 21 21 21 20 20 20 20 21 21
31 30 32 33 32 31 32 34 35 33 32 34 32 31 30 29 31 27 26 25 24 24 23 22 22 21 21 20 20 20 21 20 21 21 20 20 21 20 21 21 21 21 21 21 20 20 20 21 21
30 32 31 32 31 31 32 33 34 33 33 32 32 31 30 30 29 28 26 25 25 23 22 22 21 21 21 20 20 20 20 20 21 21 20 20 20 20 20 21 21 20 21 20 20 20 20 21 21
31 31 31 30 32 32 31 32 32 31 31 31 31 31 30 30 29 28 27 25 24 24 23 22 21 21 20 20 20 21 21 21 21 21 20 20 20 20 20 21 21 20 21 21 21 21 21 21 22
30 29 30 31 31 30 32 31 31 30 30 30 29 29 30 30 30 28 27 27 30 24 23 22 22 21 20 21 21 21 21 21 21 21 21 20 20 20 20 21 21 20 21 21 21 21 21 21 21
29 29 30 31 30 31 32 31 30 29 28 28 28 28 28 30 30 29 28 28 24 24 23 22 22 21 21 21 21 22 22 22 21 21 21 21 20 20 20 21 21 21 21 21 21 20 22 22 21
29 30 30 31 31 31 30 31 30 30 29 29 29 28 28 27 28 27 27 27 28 26 23 23 22 21 21 21 21 21 21 21 21 21 21 21 21 21 20 21 21 21 21 22 21 20 21 22 22
31 30 30 30 31 32 29 32 29 28 31 31 30 29 28 26 27 26 26 25 25 25 25 24 22 21 21 21 21 21 22 22 22 22 22 21 21 21 21 21 21 21 21 21 21 21 21 22 22
32 30 29 30 31 30 30 31 33 27 30 30 30 29 29 27 26 26 25 24 24 23 23 25 23 22 21 21 22 21 22 23 22 23 22 22 21 21 22 23 21 21 21 21 21 21 20 21 22
29 30 29 28 30 31 30 30 32 32 30 29 28 28 27 27 27 26 24 23 22 23 23 22 23 22 22 21 21 22 22 23 23 23 22 22 23 22 21 23 23 23 21 21 21 20 20 20 21
31 31 30 30 30 30 27 29 31 28 28 28 27 27 27 26 26 26 25 24 23 22 22 22 21 22 22 22 21 22 22 22 23 23 23 24 23 23 22 22 22 22 22 22 21 20 21 21 21
29 30 30 28 29 30 26 29 31 27 27 27 26 26 26 26 26 25 25 24 23 22 21 21 20 21 22 22 22 22 22 22 23 23 24 23 24 24 23 23 22 23 22 21 21 20 21 22 22
29 29 27 27 24 27 29 28 29 27 28 28 28 27 26 25 25 25 24 23 22 22 21 20 20 21 22 22 22 22 22 22 23 23 23 24 22 23 23 22 22 22 22 21 21 20 20 21 20
29 27 28 27 26 26 28 27 29 29 29 29 28 27 25 25 24 24 24 22 22 21 20 20 21 20 22 22 22 22 22 22 22 22 22 23 23 22 23 22 22 22 22 21 21 21 20 20 20
28 28 26 26 26 27 26 28 28 28 28 27 27 26 25 24 24 24 24 22 21 21 20 20 21 20 20 20 21 22 22 22 22 22 22 22 22 22 22 22 22 22 22 21 21 21 20 20 20
26 27 27 27 26 26 25 27 30 28 27 25 25 25 24 24 23 23 23 22 21 21 20 20 20 20 20 19 21 20 21 22 22 21 22 21 22 22 22 22 22 22 22 22 21 21 21 20 21
Height
774 776 775 775 777 775 781 778 766 764 763 758 757 765 770 768 776 787 774 778 784 790 795 799 802 804 806 806 810 811 813 815 818 821 823 825 827 831 833 835 838 840 842 844 846 847 848 850 852
773 775 776 772 782 787 784 768 770 762 757 755 756 761 766 772 769 772 775 780 784 790 795 798 802 805 808 809 812 814 816 819 821 822 825 827 830 833 835 837 839 841 843 845 847 849 850 852 854
773 774 774 772 784 788 787 765 763 758 753 754 759 757 763 771 772 772 775 780 785 791 797 799 802 806 808 810 814 816 818 821 822 824 827 830 832 835 837 839 840 843 845 847 848 850 851 853 855
773 773 769 781 788 776 773 760 757 756 752 750 753 766 764 769 772 775 778 780 786 791 797 801 804 807 809 812 815 817 820 822 823 826 828 831 834 836 837 840 842 844 846 848 850 851 853 853 855
772 772 777 780 780 770 760 753 754 756 753 753 752 767 768 769 772 775 780 784 787 792 797 801 805 808 811 813 816 818 821 823 825 827 829 832 834 836 838 841 843 845 847 849 850 852 853 855 856
775 777 786 789 779 767 758 750 752 754 754 756 757 761 767 770 770 778 782 787 791 793 797 801 805 808 812 815 817 819 822 825 826 829 830 832 834 837 840 841 844 846 848 849 851 853 854 856 858
777 781 789 787 784 775 763 750 754 753 754 757 752 766 769 769 770 776 785 789 793 795 798 801 804 807 811 815 818 820 823 826 828 830 832 833 835 838 840 842 845 847 848 850 852 854 855 857 859
776 779 789 786 785 778 757 754 749 753 757 748 747 759 761 760 769 774 783 789 793 796 798 801 804 806 810 814 817 820 823 826 828 830 833 834 836 839 840 843 845 848 849 852 854 855 857 858 860
774 784 791 785 784 773 756 758 746 747 751 749 744 746 747 755 763 770 777 786 790 795 797 800 804 806 808 813 816 819 822 826 828 830 833 835 837 839 841 844 846 848 850 852 855 856 858 860 861
776 785 781 769 766 769 761 756 749 753 750 752 748 748 754 761 761 763 769 777 783 788 794 797 801 805 808 811 815 819 822 825 827 829 832 834 837 839 842 844 846 848 850 853 854 856 858 860 862
776 779 769 763 759 759 761 758 746 751 753 738 745 744 753 758 760 760 764 768 774 782 790 795 799 802 806 809 814 817 820 823 825 828 831 834 836 839 841 843 846 848 850 853 854 856 858 860 862
780 767 765 760 756 760 760 751 753 746 738 728 736 737 743 749 754 756 761 765 772 778 783 790 797 800 802 806 810 815 818 821 824 826 829 832 835 838 840 842 845 846 849 852 854 856 858 860 860
774 766 761 757 755 754 748 749 750 744 729 728 732 735 734 741 747 751 755 761 765 773 779 785 792 797 802 805 808 812 815 818 821 824 826 830 833 836 838 841 844 846 848 850 853 855 858 859 859
762 763 760 756 753 753 755 747 748 733 728 730 730 730 729 731 741 748 753 759 767 772 778 785 790 795 799 803 807 810 813 816 819 822 825 827 831 834 837 839 842 845 847 849 851 854 856 858 859
761 767 754 754 755 754 748 752 752 733 731 729 727 727 727 731 734 738 749 755 762 770 778 783 788 793 797 800 805 810 812 815 816 819 822 824 828 830 834 837 840 842 845 847 849 851 853 856 858
771 770 775 754 754 754 753 762 736 736 735 730 728 726 728 730 730 742 750 758 765 771 775 781 786 789 793 797 801 807 810 813 816 817 820 822 824 828 831 834 837 839 842 845 847 849 851 853 855
778 782 780 770 755 758 758 758 738 734 732 734 729 725 729 730 736 744 752 758 763 767 772 777 783 785 789 793 798 804 807 811 814 817 818 820 822 825 829 832 834 837 840 842 844 846 848 850 851
786 783 777 779 762 758 764 759 749 743 739 735 731 726 727 733 734 742 748 755 758 762 769 769 775 780 785 791 796 800 804 807 811 813 816 817 820 822 825 829 831 834 837 839 841 843 845 846 847
780 784 784 766 761 765 759 760 755 749 743 738 736 733 730 732 733 741 745 744 738 748 758 765 763 771 779 785 789 793 796 801 804 807 810 814 815 818 822 826 828 830 834 836 838 840 842 843 845
782 785 779 766 762 763 760 763 755 751 750 748 745 742 738 733 734 740 743 742 746 753 757 758 762 763 766 773 779 786 790 793 798 802 804 807 811 814 817 820 824 826 829 832 833 835 837 839 841
778 779 777 774 765 761 766 770 763 752 749 746 745 745 741 742 742 742 744 746 747 752 752 751 755 757 756 762 772 779 787 790 792 795 798 799 803 808 811 814 818 821 824 827 828 831 832 833 835
777 767 770 772 773 780 770 782 770 764 752 745 742 743 744 745 742 743 743 745 747 748 748 750 752 753 755 758 762 767 770 775 778 781 789 794 796 800 804 809 813 816 819 821 823 825 827 828 830
769 765 770 770 772 777 775 779 758 767 761 753 748 745 743 745 746 746 746 744 745 745 746 746 745 747 750 751 755 759 763 766 770 776 779 784 788 792 795 800 805 809 812 815 818 819 821 823 826
766 768 773 777 777 787 777 780 764 759 759 757 753 750 749 746 744 746 747 748 747 745 744 743 744 744 744 746 749 751 755 759 763 767 770 774 778 784 790 792 796 800 804 807 811 813 815 817 820
764 770 790 793 791 791 788 785 766 761 757 757 757 754 752 750 747 745 743 745 745 743 741 739 739 738 740 740 741 744 749 753 755 758 763 766 770 775 778 783 788 792 796 800 804 807 809 811 813
780 778 794 815 804 790 792 785 764 760 756 755 755 753 749 747 746 745 743 743 742 740 738 736 736 731 729 732 734 739 743 746 748 753 755 759 762 765 770 773 779 783 788 793 796 799 801 805 806
781 787 786 796 808 804 781 775 759 758 756 754 751 751 751 750 747 745 744 744 743 740 736 734 732 725 724 727 731 734 736 739 741 747 751 754 756 759 763 767 770 774 780 785 789 791 793 797 799
774 780 792 793 811 812 789 789 771 764 758 753 751 750 752 750 749 747 745 743 740 738 735 732 732 728 724 725 728 729 730 734 738 742 743 746 751 754 759 762 765 769 771 775 781 785 786 790 793
784 785 793 792 796 802 806 785 759 760 757 757 752 751 752 752 750 747 744 743 741 737 735 731 730 727 724 723 724 725 726 729 732 734 736 741 746 751 754 759 761 759 764 769 773 777 780 783 785
780 783 783 793 802 796 797 787 748 755 753 755 752 750 750 749 747 745 743 740 738 736 733 731 729 726 725 723 722 722 723 723 725 727 731 735 739 743 746 750 756 759 760 762 766 769 771 774 776
Wind_Speed
7 1 3 4 0 2 9 9 2 8 3 2 10 4 3 0 2 2 5 24 31 30 27 23 23 22 21 24 23 24 24 23 25 25 25 25 26 24 22 20 18 17 15 15 14 12 12 11 10
7 2 1 3 3 6 7 8 10 6 7 10 8 5 0 1 2 6 21 23 32 30 27 24 24 23 23 23 23 24 24 23 24 26 23 24 24 23 20 19 16 15 15 13 12 11 11 10 9
7 2 2 2 2 4 4 7 3 6 9 3 4 4 3 3 3 17 15 29 30 29 25 24 26 23 23 23 22 22 22 23 24 24 22 20 21 22 19 16 15 13 14 12 11 10 11 10 10
3 3 2 2 6 1 2 5 2 2 4 6 5 7 5 6 9 6 26 32 31 29 25 24 24 22 22 23 24 23 22 22 23 22 22 20 20 20 18 15 15 14 13 12 11 11 10 11 11
2 1 3 3 3 2 5 4 6 5 4 4 2 5 4 5 4 15 26 30 32 27 24 23 23 23 23 22 21 21 22 22 22 21 20 19 18 18 17 16 15 14 13 11 11 11 11 11 12
1 1 1 3 5 3 5 6 7 6 5 4 4 6 5 7 14 19 25 27 26 27 24 22 23 24 23 23 22 20 20 20 20 19 19 18 17 17 18 16 15 14 13 12 10 13 12 12 12
2 1 3 2 2 4 4 9 7 6 7 5 7 3 3 8 16 23 20 23 23 23 23 20 21 22 23 23 22 21 19 20 18 18 17 17 17 15 15 15 15 14 14 12 11 13 13 13 13
1 1 3 1 3 5 5 5 6 6 1 7 4 5 6 15 22 25 20 20 20 22 21 20 19 21 21 20 21 21 20 18 18 16 16 16 15 15 14 14 14 14 13 13 13 13 13 13 13
1 0 2 1 1 6 7 10 4 2 4 5 3 4 4 29 29 28 24 21 21 21 21 21 21 21 21 20 20 20 18 17 16 16 16 16 15 14 14 14 13 12 12 12 11 11 12 13 11
2 1 2 2 3 7 10 12 11 5 7 5 7 6 17 26 30 31 28 27 27 26 24 23 23 21 20 19 18 18 18 16 16 15 15 16 15 16 13 12 13 12 11 11 11 13 12 12 10
2 3 1 7 9 9 5 6 6 5 9 13 13 8 16 23 25 26 28 32 33 30 26 25 24 22 22 19 18 18 18 17 16 16 16 15 15 14 12 12 12 12 11 11 11 12 12 13 11
4 8 9 8 4 3 6 4 5 11 15 13 6 10 19 22 21 25 27 29 30 30 30 26 25 23 23 21 21 19 18 18 18 18 18 17 16 15 14 12 12 11 12 11 12 11 11 11 11
9 7 6 10 11 11 11 15 12 14 17 13 6 13 20 21 22 28 29 28 32 31 30 29 26 25 23 21 21 20 21 20 19 18 19 18 17 16 15 13 13 11 12 11 11 10 11 10 10
2 8 11 10 13 8 9 13 2 7 6 10 8 16 19 20 20 25 27 26 28 29 30 28 26 25 24 22 20 20 19 19 19 19 20 24 18 17 16 14 14 13 12 10 10 10 10 10 11
6 10 14 4 2 1 4 6 5 6 10 10 5 12 17 18 21 27 27 27 28 27 25 28 27 26 25 25 21 20 19 20 21 21 20 25 21 20 17 15 15 14 13 13 13 11 10 10 10
4 2 5 3 5 3 3 4 8 10 9 10 6 9 14 17 20 19 21 22 20 22 25 24 25 27 26 25 25 22 20 20 19 20 21 23 23 21 20 16 16 14 14 13 12 11 11 12 12
2 4 6 7 4 4 4 8 10 16 13 7 9 8 10 12 13 10 16 19 21 24 25 26 25 26 27 26 23 23 22 21 19 18 20 21 21 21 19 17 16 16 15 13 12 12 13 11 12
6 6 4 9 2 4 5 10 12 13 8 10 8 7 7 7 11 13 17 18 21 24 26 29 29 29 28 25 24 22 21 21 20 20 20 21 22 21 21 19 17 17 16 15 15 14 13 13 12
4 5 10 8 4 5 7 8 9 10 9 15 15 13 7 4 4 13 20 23 25 31 30 32 37 33 30 27 27 26 26 24 24 23 22 22 24 23 22 21 19 18 18 17 16 14 14 14 13
5 6 6 8 3 3 6 5 7 9 7 9 11 13 14 8 1 9 17 19 16 21 29 30 33 35 38 34 31 27 27 25 25 23 23 25 25 25 24 23 21 21 19 19 20 18 16 16 15
4 6 3 4 5 1 7 3 5 3 2 4 8 7 11 11 9 8 3 4 12 21 30 30 35 37 40 37 29 24 19 19 22 25 26 27 27 26 27 26 25 22 22 21 21 21 21 20 15
2 4 6 4 2 4 4 3 2 3 6 7 9 9 9 10 11 9 10 10 7 7 20 25 29 33 35 37 33 34 32 29 29 30 29 27 28 29 28 28 26 26 24 25 23 20 21 22 19
2 2 1 4 1 2 3 4 1 2 2 3 8 12 12 10 9 8 9 13 13 12 10 20 27 31 31 37 36 35 33 31 27 27 29 34 30 32 33 33 29 27 26 24 24 21 21 21 25
3 1 3 2 1 7 2 4 6 3 1 1 4 9 12 15 14 10 9 9 11 12 10 5 14 26 32 35 38 36 36 31 29 29 29 29 32 29 33 35 37 34 28 26 24 24 24 23 23
3 5 3 3 4 7 3 4 8 1 2 3 5 7 9 10 10 12 13 12 12 13 14 10 8 17 30 35 37 39 38 35 33 32 32 29 29 30 33 39 36 32 34 31 25 22 30 29 21
3 3 4 6 6 7 2 5 0 1 1 4 6 7 9 10 10 11 13 16 17 18 16 12 15 17 26 35 36 35 35 35 35 32 31 32 30 31 30 37 36 34 30 28 25 24 29 29 29
2 1 3 1 1 4 3 3 5 2 6 7 8 6 7 9 11 12 13 15 16 17 18 14 16 16 13 27 31 33 33 35 35 32 32 31 32 29 29 30 34 33 29 27 26 25 27 29 27
1 5 2 1 3 5 2 4 3 4 6 9 10 8 7 8 10 10 9 14 18 17 15 12 11 12 7 17 25 30 32 32 31 30 31 34 30 30 25 28 28 28 29 29 26 23 25 24 24
4 3 3 0 3 4 5 5 3 6 6 11 12 10 8 8 9 10 10 14 16 15 12 9 11 10 5 4 17 25 28 30 28 31 30 31 29 26 25 25 27 28 26 25 26 24 20 22 21
0 2 2 3 1 3 5 8 9 8 10 10 12 9 9 9 10 10 11 12 12 12 12 8 9 10 9 10 11 13 17 22 25 27 29 25 30 30 31 29 27 22 22 22 23 22 20 21 21
Wind_Direction
198 303 296 294 226 27 35 24 312 50 94 62 130 147 237 197 213 16 138 153 151 154 152 147 147 142 141 143 143 142 138 139 146 144 144 140 144 143 140 135 127 131 134 135 136 136 135 129 123
168 167 189 273 26 40 28 355 28 75 127 134 135 114 226 15 59 109 135 157 153 154 153 150 150 148 148 143 145 144 140 144 147 148 150 150 149 150 143 141 137 136 141 137 138 141 140 141 138
156 205 276 64 70 54 4 350 2 172 135 132 116 61 40 20 53 147 153 154 154 156 156 155 153 154 151 147 149 145 145 147 151 151 151 152 154 153 148 147 145 140 143 143 144 145 143 144 142
162 209 208 65 101 132 257 310 28 248 112 96 123 89 102 357 146 170 156 156 156 158 158 158 161 157 155 156 155 153 150 150 153 152 156 158 160 157 155 159 159 157 154 157 155 149 150 145 143
48 339 25 32 42 294 251 327 13 327 102 116 138 122 89 104 116 153 158 161 160 162 162 162 165 165 164 165 162 159 159 159 157 157 156 160 165 170 170 170 167 168 162 164 166 162 153 153 148
71 290 83 87 33 339 310 334 320 357 50 123 92 120 103 132 132 158 162 168 168 166 166 167 169 170 171 171 170 167 167 164 161 161 161 164 166 177 177 175 176 178 171 169 173 165 155 156 157
33 15 92 74 39 302 299 332 298 342 340 15 137 107 100 163 151 153 163 168 175 173 173 172 171 172 173 174 173 172 170 171 167 167 167 166 169 176 175 177 181 178 174 167 166 161 158 159 163
70 318 133 143 58 1 309 306 296 303 47 136 190 173 166 170 158 151 158 172 180 182 185 183 181 176 174 180 179 178 177 174 171 173 175 173 167 170 172 178 180 180 174 172 168 166 164 168 168
161 159 193 183 186 339 320 305 338 134 189 188 251 201 128 154 155 152 156 172 183 193 192 191 189 182 179 180 185 184 181 181 178 180 179 178 178 178 174 180 182 175 184 177 172 175 175 176 180
251 246 225 225 274 301 308 291 294 273 289 239 224 109 133 154 161 162 167 175 186 190 195 194 192 187 184 181 184 185 183 188 187 185 184 185 184 179 185 182 184 186 181 183 177 181 178 182 188
168 249 278 290 287 276 273 278 288 278 282 259 225 198 158 167 178 174 177 178 188 187 189 194 194 189 185 183 187 190 189 189 190 192 192 194 191 187 186 180 182 187 189 179 181 182 183 192 197
241 241 259 292 296 270 266 270 270 271 263 293 256 200 178 183 185 181 182 182 186 187 190 192 196 194 188 185 187 192 191 192 193 194 194 195 195 193 189 190 190 184 187 188 189 187 196 201 201
234 270 268 263 276 273 275 272 287 267 276 301 253 185 199 191 190 191 187 185 182 189 191 192 192 193 193 193 190 195 196 199 198 195 198 197 197 194 195 195 196 192 197 196 194 198 206 209 205
280 278 277 269 259 249 266 271 317 288 317 317 222 205 207 208 190 192 190 186 189 190 192 192 195 195 194 196 199 200 199 198 199 201 203 206 202 199 198 196 199 200 203 207 205 206 210 215 215
313 317 318 66 117 271 243 257 216 305 313 301 235 215 214 214 197 197 190 188 189 190 193 196 195 196 199 200 203 208 208 204 204 205 205 208 208 208 201 200 203 202 205 207 213 215 217 217 224
308 297 328 353 357 63 268 322 304 3 347 341 310 227 216 214 221 192 189 191 190 189 193 197 198 199 200 203 205 208 212 212 215 213 212 210 213 211 212 208 208 206 205 208 213 215 221 224 225
12 333 320 318 3 333 326 300 6 345 345 352 318 257 225 224 228 182 185 184 191 193 194 196 202 201 202 204 205 210 213 213 217 218 217 214 214 214 212 214 213 209 208 214 216 219 223 230 231
320 316 298 282 309 261 264 316 357 13 20 357 2 325 252 225 219 187 170 175 194 201 205 195 199 202 202 203 206 212 217 219 219 223 223 219 217 217 218 221 220 219 220 222 220 221 225 229 233
288 281 295 281 254 301 12 353 10 10 28 37 31 15 351 285 234 181 179 197 211 195 195 201 192 198 196 202 205 210 214 218 220 221 222 224 222 219 220 223 224 221 223 225 226 227 232 237 237
235 275 272 292 19 256 8 359 340 19 30 34 28 31 27 28 158 176 187 215 213 203 203 199 203 194 199 200 207 212 212 214 220 222 221 222 225 223 220 220 225 223 223 224 225 223 229 238 228
210 223 220 274 331 196 319 174 13 353 360 42 52 38 32 35 42 36 19 261 243 213 208 204 204 202 200 201 200 200 210 215 211 219 222 219 220 222 223 222 222 224 222 228 229 228 227 234 231
264 238 256 254 227 322 347 318 223 347 4 12 12 36 36 17 16 16 7 7 5 331 238 224 213 205 204 202 198 196 197 204 210 207 214 217 216 217 219 222 224 227 226 228 230 233 233 239 231
19 26 206 303 251 294 178 255 172 233 203 15 351 356 8 16 20 16 2 356 3 9 360 239 214 212 208 205 206 201 207 207 207 208 206 210 217 218 216 221 224 226 229 233 233 231 230 238 244
296 213 73 59 308 253 3 266 270 226 243 273 330 344 343 340 344 360 12 5 360 353 347 354 240 224 213 210 210 209 210 208 207 206 204 208 210 215 221 223 227 230 229 229 231 234 235 231 245
37 10 328 256 242 279 15 253 271 287 257 283 310 324 322 327 328 336 346 353 350 349 344 330 298 250 229 220 214 214 214 212 210 206 211 207 210 211 214 221 224 225 230 230 232 229 239 243 248
51 340 302 284 270 292 116 247 53 308 242 287 292 308 323 342 345 344 347 349 348 347 345 330 312 295 237 224 220 218 218 217 218 214 213 213 211 214 213 218 220 223 225 226 225 225 238 241 240
112 223 7 272 104 263 266 260 255 203 266 266 284 311 327 333 336 337 341 345 348 347 343 328 327 323 242 228 221 221 220 219 221 221 218 222 217 216 213 216 217 218 220 223 221 224 231 243 245
30 138 213 151 268 265 256 279 249 347 334 323 302 306 305 328 332 328 327 334 340 347 344 335 330 342 287 237 226 222 225 224 223 220 219 221 224 217 214 215 216 219 218 219 219 227 231 231 236
161 162 72 51 255 273 277 253 237 282 308 307 305 313 308 314 321 319 312 316 327 329 343 334 325 319 326 265 239 229 230 231 227 222 223 222 222 222 218 222 225 216 215 216 215 219 219 222 228
214 136 202 286 243 255 284 274 281 278 308 302 294 301 317 317 311 307 302 307 320 316 330 330 328 323 314 295 256 258 239 236 229 225 227 223 220 220 224 223 229 226 213 208 212 215 215 218 222